Location: Newark
(16.3678°N, 77.8722°E)
Time: 07:56:23
(UTC+00:00)

Tiros 1 - Pass Details

Date: 13 December 2019
Orbit: 630 x 664 km, 48.4° (Epoch: 20 January)

Event Time Altitude Azimuth Distance (km) Brightness Sun altitude
Rises 23:03:37 0° 266° (W) 2,975 - -28.7°
Reaches altitude 10° 23:07:23 10° 295° (WNW) 2,056 - -27.9°
Maximum altitude 23:09:21 12° 320° (NW) 1,896 - -27.4°
Drops below altitude 10° 23:11:19 10° 345° (NNW) 2,048 - -27.0°
Sets 23:15:03 0° 15° (NNE) 2,950 - -26.1°
